Morrisville, VT

1:46 PM EST on December 15, 2019 (GMT -0500)
Morrisville Stowe State

Weather History for KMVL - August, 2019

Change the Weather History Date:

Sunday, August 25, 2019

  Actual Average Record
Temperature  
Mean Temperature 62 °F 64 °F  
Max Temperature 77 °F 76 °F 89 °F (2007)
Min Temperature 47 °F 52 °F 41 °F (2001)
Degree Days  
Heating Degree Days 3 3  
Month to date heating degree days 38 47  
Since 1 June heating degree days 191 200  
Since 1 July heating degree days 48 77  
Cooling Degree Days 0 2  
Month to date cooling degree days 57 66  
Year to date cooling degree days 239 234  
Since 1 June cooling degree days 238 226  
Growing Degree Days 12 (Base 50)    
Moisture  
Dew Point 50 °F    
Average Humidity 81    
Maximum Humidity 100    
Minimum Humidity 37    
Precipitation  
Precipitation 0.00 in 0.11 in 0.31 in (2008)
Month to date precipitation 3.05 3.38  
Year to date precipitation 26.49 23.11  
Sea Level Pressure  
Sea Level Pressure 30.35 in    
Wind  
Wind Speed 1 mph ()    
Max Wind Speed 10 mph    
Max Gust Speed 17 mph    
Visibility 5.7 miles    
Events Fog    
T = Trace of Precipitation, MM = Missing Value Source: Averaged Metar Reports

Daily Weather History Graph

Daily Weather History Graph

Search for Another Location

Airport or City:

Astronomy

Aug. 25, 2019 Rise Set
Actual Time 6:04 AM EDT 7:39 PM EDT
Civil Twilight 5:33 AM EDT 8:10 PM EDT
Nautical Twilight 4:56 AM EDT 8:47 PM EDT
Astronomical Twilight 4:16 AM EDT 9:27 PM EDT
Moon 12:30 AM EDT (8/25) 4:05 PM EDT (8/25)
Length of Visible Light 14h 36m
Length of Day
13h 35m
Waning Crescent, 29% of the Moon is Illuminated
Aug 25
Waning Crescent
Aug 30
New
Sep 5
First Quarter
Sep 14
Full
Sep 21
Last Quarter

Hourly Weather History & Observations

Time (EDT) Temp. Dew Point Humidity Pressure Visibility Wind Dir Wind Speed Gust Speed Precip Events Conditions
12:03 AM 50.0 °F 48.9 °F 96% 30.35 in 8.0 mi Calm Calm - N/A   Partly Cloudy
12:18 AM 50.0 °F 48.9 °F 96% 30.35 in 6.0 mi Calm Calm - N/A   Mostly Cloudy
12:23 AM 50.0 °F 48.9 °F 96% 30.35 in 1.5 mi Calm Calm - N/A   Mostly Cloudy
12:26 AM 50.0 °F 48.9 °F 96% 30.35 in 0.8 mi Calm Calm - N/A   Mist
12:46 AM 50.0 °F 48.9 °F 96% 30.35 in 1.0 mi Calm Calm - N/A   Mist
12:54 AM 48.9 °F 48.0 °F 97% 30.36 in 0.5 mi Calm Calm - N/A Fog Fog
1:54 AM 48.9 °F 48.0 °F 97% 30.35 in 0.5 mi Calm Calm - N/A Fog Fog
2:02 AM 48.9 °F 48.0 °F 97% 30.35 in 1.2 mi Calm Calm - N/A   Overcast
2:54 AM 48.9 °F 48.0 °F 97% 30.35 in 0.2 mi SSW 3.5 mph - N/A Fog Fog
4:54 AM 48.9 °F 48.0 °F 97% 30.37 in 0.5 mi Calm Calm - N/A Fog Fog
5:54 AM 48.9 °F 48.0 °F 97% 30.38 in 0.2 mi Calm Calm - N/A Fog Fog
6:54 AM 48.0 °F 48.0 °F 100% 30.39 in 0.2 mi Calm Calm - N/A Fog Fog
7:54 AM 48.9 °F 48.9 °F 100% 30.41 in 0.2 mi Calm Calm - N/A Fog Fog
8:52 AM 51.8 °F 51.8 °F 100% 30.40 in 1.2 mi Calm Calm - N/A   Overcast
8:54 AM 52.0 °F 51.1 °F 97% 30.42 in 2.0 mi Calm Calm - N/A   Overcast
9:02 AM 53.1 °F 52.0 °F 96% 30.40 in 4.0 mi Calm Calm - N/A   Overcast
9:54 AM 61.0 °F 54.0 °F 78% 30.41 in 10.0 mi Calm Calm - N/A   Clear
10:54 AM 66.9 °F 55.9 °F 68% 30.40 in 10.0 mi SSE 4.6 mph - N/A   Clear
11:54 AM 70.0 °F 52.0 °F 53% 30.38 in 10.0 mi NW 3.5 mph - N/A   Clear
12:54 PM 73.0 °F 53.1 °F 49% 30.35 in 10.0 mi Calm Calm - N/A   Partly Cloudy
1:54 PM 75.0 °F 52.0 °F 44% 30.34 in 10.0 mi North 6.9 mph - N/A   Partly Cloudy
2:54 PM 73.9 °F 48.0 °F 40% 30.32 in 10.0 mi South 3.5 mph - N/A   Clear
3:54 PM 75.0 °F 48.0 °F 38% 30.31 in 10.0 mi ENE 4.6 mph - N/A   Clear
4:54 PM 75.9 °F 48.0 °F 37% 30.29 in 10.0 mi Variable 5.8 mph - N/A   Clear
5:54 PM 73.9 °F 46.0 °F 37% 30.29 in 10.0 mi Calm Calm - N/A   Clear
6:54 PM 66.0 °F 53.1 °F 63% 30.29 in 10.0 mi Calm Calm - N/A   Clear
7:54 PM 59.0 °F 54.0 °F 83% 30.30 in 10.0 mi Calm Calm - N/A   Clear
8:54 PM 55.0 °F 52.0 °F 89% 30.32 in 10.0 mi Calm Calm - N/A   Clear
9:54 PM 53.1 °F 50.0 °F 89% 30.33 in 10.0 mi Calm Calm - N/A   Clear
10:54 PM 50.0 °F 48.0 °F 93% 30.33 in 10.0 mi Calm Calm - N/A   Clear
11:54 PM 48.0 °F 46.9 °F 96% 30.32 in 10.0 mi SSW 4.6 mph - N/A   Clear